Location: Dzierzno
(50.6159°N, 19.2852°E)
Time: 02:06:00
(UTC+00:00)

Cosmos 1943 Rocket - Pass Details

Date: 18 November 2025
Orbit: 812 x 841 km, 71.0° (Epoch: 04 December)

Event Time Altitude Azimuth Distance (km) Brightness Sun altitude
Rises 17:23:47 0° 229° (SW) 3,374 6.1 -23.6°
Reaches altitude 10° 17:26:20 10° 236° (SW) 2,440 5.4 -24.0°
Maximum altitude 17:31:40 44° 308° (NW) 1,130 3.1 -24.9°
Enters shadow 17:35:15 20° 12° (NNE) 1,836 3.8 -25.4°
